Regional Weather Roundup
Issued by NWS Newport/Morehead, NC

Current Version | Previous Version | Text Only | Print | Product List | Glossary On
Versions: 1 2 3 4 5 6 7 8 9 10 11 12 13 14 15 16 17 18 19 20 21 22 23 24 25 26 27 28 29 30 31 32 33 34 35 36 37 38 39 40 41 42 43 44 45 46 47 48 49 50
000
ASUS42 KMHX 262324
RWRMHX
WEATHER ROUNDUP FOR EASTERN NORTH CAROLINA
NATIONAL WEATHER SERVICE NEWPORT/MOREHEAD CITY NC
600 PM EST THU FEB 26 2015

NOTE: "FAIR" INDICATES FEW OR NO CLOUDS BELOW 12,000 FEET
WITH NO SIGNIFICANT WEATHER AND/OR OBSTRUCTIONS TO VISIBILITY

NCZ015>017-031-032-045>047-102-103-270000-
NORTH COAST

CITY           SKY/WX    TMP DP  RH WIND       PRES   REMARKS
EDENTON        MIX PCPN  33  32  94 N8        30.02R
ELIZABETH CITY NOT AVBL
KITTY HAWK     CLOUDY    32  32 100 N15G28    29.95R FOG
MANTEO         CLOUDY    32  30  93 N15G25    29.97R

$$

NCZ045>047-081-094-103-104-270000-
CENTRAL COAST

CITY           SKY/WX    TMP DP  RH WIND       PRES   REMARKS
FRISCO         CLOUDY    34  32  92 N10G22    29.94R
SWANQUARTER      N/A     34 N/A N/A N3G12     29.97R

$$

NCZ095-097-098-100-101-270000-
SOUTHERN COAST

CITY           SKY/WX    TMP DP  RH WIND       PRES   REMARKS
BEAUFORT       CLOUDY    37  33  85 N13       29.98R
CEDAR ISLAND     N/A     36 N/A N/A NW13G25   30.03R
JACKSONVILLE   CLOUDY    37  32  82 N13       30.00R
PINEY ISLAND     N/A    N/A N/A N/A MISG      29.99R
WILMINGTON     CLOUDY    38  33  82 N10       30.00R


$$

NCZ011>013-027>030-043-044-078>080-089-090>093-098-270000-
COASTAL PLAIN

CITY           SKY/WX    TMP DP  RH WIND       PRES   REMARKS
AHOSKIE        LGT RAIN  33  31  94 N3        30.04R
CLINTON        CLOUDY    37  33  85 N3        30.03R
ELIZABETHTOWN  CLOUDY    37  32  82 CALM      30.02R
GOLDSBORO      CLOUDY    36  36  98 N9        30.01R
GREENVILLE     CLOUDY    34  32  93 N3        30.04R
HAVELOCK       CLOUDY    37  33  85 N15       30.01R
KENANSVILLE    CLOUDY    36  33  89 N5        30.03R
KINSTON        MOCLDY    36  32  87 N6        30.03R FOG
NEW BERN       CLOUDY    36  32  85 N9        30.02R
RICHLANDS      CLOUDY    36  30  80 N5        30.02R
ROCKY MOUNT    CLOUDY    35  31  85 N5        30.03R
WASHINGTON     MOCLDY    34  32  92 N7        30.01R
WHITEVILLE     CLOUDY    38  32  79 N3        30.01R

$$

AMZ130-135-150-152-154-156-158-170-250-252-270-ANZ085-086-088-633-658-670-270000-
MARINE OBSERVATIONS

STATION/POSITION TIME  TEMP    WIND        PRES    WAVE   SWELL
                       AIR SEA DIR/SP/G            HT/PER HT/PER
                 (UTC) (F)     (DEG/KT/KT) (MB)    (FT/S) (FT/S)
CHESAPEAKE LIGHT 2300   31     360/ 26/ 27 1016.0
64 E VA BEACH    2250   44 57   10/ 25/ 31 1012.0   16/ 9  13/ 9
DUCK             2300   33 35   10/ 25/ 29 1013.3
2 E DUCK         2311      36                N/A    10/11   3/11
10 NE DUCK       2222      38                N/A    11/11   5/11
OREGON INLET     2300   33 37  340/ 17/ 24 1014.0
HATTERAS CG      2300   35 41  350/ 20/ 25 1014.2
CAPE LOOKOUT     2300   37     340/ 13/ 16 1014.8
BEAUFORT LAB     2300   37 40  360/ 15/ 19 1014.3
27 SE WRIGHTSVLE NOT AVBL
5 SE WRIGHTSVLE  NOT AVBL
225 S CAPE HAT   2250   64 70  300/ 17/ 23 1011.9   14/ 9  10/ 9
41 SE CHARLESTON 2250   45 65  360/ 14/ 19 1015.5    5/10   5/10

$$


USA.gov is the U.S. government's official web portal to all federal, state and local government web resources and services.